This is the latest recevied weather packets stored in our database for station/object K7FLA. If no packets are shown the sender has not sent any weather packets the latest 10 day(s).
| Time | Temp. | Humidity | Pressure | Rain* | Wind** | Luminosity | Snow |
|---|---|---|---|---|---|---|---|
| 1777951631 | 13.33° C | 63% | 1094.2 hPa | 0 mm | - | 0 W/m² | - |
| 1777951326 | 13.33° C | 63% | 1094.1 hPa | 0 mm | - | 0 W/m² | - |
| 1777951024 | 13.33° C | 63% | 1094.1 hPa | 0 mm | - | 0 W/m² | - |
| 1777950720 | 13.33° C | 63% | 1094.2 hPa | 0 mm | - | 0 W/m² | - |
| 1777950417 | 13.33° C | 62% | 1094.1 hPa | 0 mm | - | 0 W/m² | - |
| 1777950113 | 13.33° C | 62% | 1094 hPa | 0 mm | - | 0 W/m² | - |
| 1777949809 | 13.33° C | 62% | 1094.2 hPa | 0 mm | - | 0 W/m² | - |
| 1777949508 | 13.33° C | 62% | 1094.1 hPa | 0 mm | - | 0 W/m² | - |
| 1777949205 | 13.33° C | 62% | 1094.1 hPa | 0 mm | - | 0 W/m² | - |
| 1777948902 | 13.33° C | 63% | 1094 hPa | 0 mm | - | 1 W/m² | - |
| 1777948599 | 13.89° C | 62% | 1094.1 hPa | 0 mm | - | 2 W/m² | - |
| 1777948296 | 13.89° C | 62% | 1094.1 hPa | 0 mm | - | 3 W/m² | - |
| 1777947994 | 13.89° C | 61% | 1094.2 hPa | 0 mm | - | 5 W/m² | - |
| 1777947691 | 13.89° C | 62% | 1094.1 hPa | 0 mm | - | 7 W/m² | - |
| 1777947387 | 13.89° C | 61% | 1094 hPa | 0 mm | - | 10 W/m² | - |
| 1777947084 | 13.89° C | 61% | 1094.1 hPa | 0 mm | - | 13 W/m² | - |
| 1777946779 | 14.44° C | 59% | 1093.9 hPa | 0 mm | - | 25 W/m² | - |
| 1777946476 | 14.44° C | 59% | 1093.9 hPa | 0 mm | - | 25 W/m² | - |
| 1777946173 | 14.44° C | 59% | 1093.9 hPa | 0 mm | - | 29 W/m² | - |
| 1777945870 | 15° C | 58% | 1093.9 hPa | 0 mm | - | 34 W/m² | - |
| 1777945567 | 15° C | 57% | 1093.8 hPa | 0 mm | - | 41 W/m² | - |
| 1777945264 | 15° C | 56% | 1093.9 hPa | 0 mm | - | 39 W/m² | - |
| 1777944961 | 15.56° C | 55% | 1094.2 hPa | 0 mm | - | 43 W/m² | - |
| 1777944658 | 15.56° C | 53% | 1094 hPa | 0 mm | - | 51 W/m² | - |
| 1777944356 | 16.11° C | 52% | 1093.9 hPa | 0 mm | - | 55 W/m² | - |
* Rain latest hour (hover to see other rain measurements)
** Current wind speed in m/s (hover to see current wind gust speed)